This is the latest recevied weather packets stored in our database for station/object KE8DDT-7. If no packets are shown the sender has not sent any weather packets the latest 10 day(s).
| Time | Temp. | Humidity | Pressure | Rain* | Wind** | Luminosity | Snow |
|---|---|---|---|---|---|---|---|
| 1777925965 | 23.89° C | 37% | 992.6 hPa | 0 mm | - | 102 W/m² | - |
| 1777925665 | 23.89° C | 37% | 992.8 hPa | 0 mm | - | 109 W/m² | - |
| 1777925365 | 23.33° C | 38% | 992.8 hPa | 0 mm | - | 153 W/m² | - |
| 1777925065 | 23.33° C | 37% | 992.8 hPa | 0 mm | - | 149 W/m² | - |
| 1777924765 | 23.33° C | 36% | 993 hPa | 0 mm | - | 167 W/m² | - |
| 1777924465 | 23.89° C | 35% | 992.9 hPa | 0 mm | - | 153 W/m² | - |
| 1777924165 | 23.89° C | 34% | 993 hPa | 0 mm | - | 104 W/m² | - |
| 1777923865 | 23.89° C | 34% | 992.9 hPa | 0 mm | - | 153 W/m² | - |
| 1777923565 | 23.89° C | 35% | 993 hPa | 0 mm | - | 125 W/m² | - |
| 1777923265 | 23.33° C | 35% | 992.9 hPa | 0 mm | - | 151 W/m² | - |
| 1777922965 | 23.33° C | 36% | 993 hPa | 0 mm | - | 113 W/m² | - |
| 1777922665 | 23.89° C | 34% | 993.2 hPa | 0 mm | - | 111 W/m² | - |
| 1777922365 | 23.89° C | 33% | 993.2 hPa | 0 mm | - | 81 W/m² | - |
| 1777922065 | 23.33° C | 34% | 993.2 hPa | 0 mm | - | 102 W/m² | - |
| 1777921765 | 23.89° C | 33% | 993.2 hPa | 0 mm | - | 91 W/m² | - |
| 1777921465 | 23.89° C | 33% | 993.3 hPa | 0 mm | - | 97 W/m² | - |
| 1777921165 | 23.89° C | 35% | 993.3 hPa | 0 mm | - | 807 W/m² | - |
| 1777920865 | 23.89° C | 33% | 993.4 hPa | 0 mm | - | 860 W/m² | - |
| 1777920565 | 23.89° C | 34% | 993.5 hPa | 0 mm | - | 872 W/m² | - |
| 1777920265 | 23.89° C | 33% | 993.4 hPa | 0 mm | - | 896 W/m² | - |
| 1777919965 | 23.89° C | 31% | 993.6 hPa | 0 mm | - | 896 W/m² | - |
| 1777919665 | 23.89° C | 32% | 993.5 hPa | 0 mm | - | 898 W/m² | - |
| 1777919365 | 23.89° C | 31% | 993.6 hPa | 0 mm | - | 902 W/m² | - |
| 1777919065 | 23.89° C | 33% | 993.7 hPa | 0 mm | - | 895 W/m² | - |
| 1777918765 | 23.89° C | 31% | 993.7 hPa | 0 mm | - | 895 W/m² | - |
* Rain latest hour (hover to see other rain measurements)
** Current wind speed in m/s (hover to see current wind gust speed)